Location: Austin
(30.3000°N, 97.7500°W)
Time: 06:36:29
(UTC-05:00)

Cosmos 1766 - Pass Details

Date: 11 June 2024
Orbit: 487 x 501 km, 82.5° (Epoch: 22 June)

Event Time Altitude Azimuth Distance (km) Brightness Sun altitude
Rises 21:55:58 0° 360° (N) 2,599 7.4 -15.7°
Reaches altitude 10° 21:58:08 10° 5° (N) 1,711 6.3 -16.1°
Maximum altitude 22:01:47 51° 82° (E) 636 3.3 -16.7°
Enters shadow 22:02:47 38° 131° (SE) 769 3.5 -16.8°
